Torna al catalogo

NILESAT 102

AttivoComunicazioniGEO
NORAD 26470·PAYLOAD·🇪🇬 Egypt

Lanciato Aug 17, 2000 da Guiana Space Centre

Loading…

TLE

AggiornatoSource: Space-Track

Epoca: Sep 14, 2026, 06:51 UTC

1 26470U 00046B   26257.28565102 -.00000182  00000-0  00000-0 0  9992
2 26470   9.5765  58.4925 0006183 110.8384 265.2083  0.98044720 45424

Traccia NILESAT 102 in tempo reale con AllMySat

Download on the App Store